Regional Weather Roundup
Issued by NWS

Home | Current Version | Previous Version | Text Only | Print | Product List | Glossary Off
Versions: 1 2 3 4 5 6 7 8 9 10 11 12 13 14 15 16 17 18 19 20 21 22 23 24 25 26 27 28 29 30 31 32 33 34 35 36 37 38 39 40 41 42 43 44 45 46 47 48 49 50

000
ASUS43 KDTX 090601
RWRMI
MICHIGAN HOURLY REGIONAL WEATHER ROUNDUP
NATIONAL WEATHER SERVICE DETROIT/PONTIAC MI
100 AM EST TUE FEB 09 2016

NOTE: "FAIR" INDICATES FEW OR NO CLOUDS BELOW 12,000 FEET WITH NO
SIGNIFICANT WEATHER AND/OR OBSTRUCTION TO VISIBILITY.

MIZ047>049-052>055-059>063-066>070-074>076-081>083-090700-
SOUTHEAST LOWER MICHIGAN

CITY           SKY/WX    TMP DP  RH WIND       PRES   REMARKS
ADRIAN         CLOUDY    31  26  82 W12       29.59S WCI  22
6HR MIN TEMP:  31; 6HR MAX TEMP:  34;

ALMA           FLURRIES  33  32  97 NW6       29.57S WCI  27
ANN ARBOR      LGT SNOW  31  29  92 W8        29.56S FOG     WCI  23
BAD AXE        LGT SNOW  33  33  99 NW9       29.49F WCI  25
CARO           CLOUDY    32  32 100 W7        29.52S WCI  26
DETROIT CITY   CLOUDY    34  28  79 W7        29.55S WCI  28
6HR MIN TEMP:  34; 6HR MAX TEMP:  38;

DETROIT        CLOUDY    33  28  81 W7        29.57S WCI  27
6HR MIN TEMP:  33; 6HR MAX TEMP:  36; 6HR PCP: TRACE;

FLINT          LGT SNOW  35  30  82 W8        29.55S WCI  29
6HR MIN TEMP:  35; 6HR MAX TEMP:  38; 6HR PCP: TRACE;

GROSSE ILE     MOCLDY    32  28  86 CALM      29.56S
HILLSDALE      CLOUDY    29  27  93 W10       29.57F WCI  19
6HR MIN TEMP:  29; 6HR MAX TEMP:  32;

HOWELL         CLOUDY    32  32  98 W8        29.55S FOG     WCI  25

CITY           SKY/WX    TMP DP  RH WIND       PRES   REMARKS
JACKSON        SNOW      30  27  88 W8        29.57S VSB 1/2 WCI  22
6HR MIN TEMP:  30; 6HR MAX TEMP:  35; 6HR PCP:  0.02;

LAMBERTVILLE   CLOUDY    32  29  86 W7        29.60S WCI  26
6HR MIN TEMP:  32; 6HR MAX TEMP:  36;

LANSING        LGT SNOW  33  29  85 W9        29.57F FOG     WCI  25
6HR MIN TEMP:  33; 6HR MAX TEMP:  37; 6HR PCP: TRACE;

LAPEER         LGT SNOW  32  32 100 W6        29.53S WCI  26
6HR MIN TEMP:  32; 6HR MAX TEMP:  37;

MASON          LGT SNOW  32  30  93 W6        29.56F WCI  26
MONROE         CLOUDY    33  29  86 W9        29.56F WCI  25
6HR MIN TEMP:  32; 6HR MAX TEMP:  35;

MT. CLEMENS    PTCLDY    34  31  89 W8        29.52F WCI  27
6HR MIN TEMP:  34; 6HR MAX TEMP:  38; 6HR PCP: TRACE;

PONTIAC        CLOUDY    32  29  88 W9        29.52F WCI  24
6HR MIN TEMP:  32; 6HR MAX TEMP:  36; 6HR PCP: TRACE;

PORT HOPE        N/A     33  32  96 N5        29.48F WCI  29
6HR MIN TEMP:  32; 6HR MAX TEMP:  33; 6HR PCP:  0.23;

PORT HURON     FLURRIES  32  32 100 W5        29.51F WCI  27
TRI CITIES     LGT SNOW  34  31  88 NW9       29.55S FOG     WCI  27
6HR MIN TEMP:  34; 6HR MAX TEMP:  38; 6HR PCP:  0.06;

MIDLAND        LGT SNOW  33  32  96 NW7       29.55S WCI  27
6HR MIN TEMP:  33; 6HR MAX TEMP:  36;

TROY           CLOUDY    35  31  85 W5        29.56S WCI  31
SAGINAW HB     LGT SNOW  34  32  93 W6        29.54S WCI  29
$$
MIZ043>046-050>051-056>058-064>065-071>073-077>080-090700-
SOUTHWEST LOWER MICHIGAN

CITY           SKY/WX    TMP DP  RH WIND       PRES   REMARKS
BATTLE CREEK   CLOUDY    30  27  88 W8        29.59F WCI  22
6HR MIN TEMP:  30; 6HR MAX TEMP:  32; 6HR PCP:  0.02;

BENTON HARBOR  LGT SNOW  31  28  89 W17G24    29.65S FOG     WCI  19
6HR MIN TEMP:  30; 6HR MAX TEMP:  31; 6HR PCP:  0.04;

BIG RAPIDS     CLOUDY    30  28  90 N10       29.58S WCI  21
6HR MIN TEMP:  30; 6HR MAX TEMP:  36;

COLDWATER      LGT SNOW  29  28  95 W10       29.60F WCI  19
6HR MIN TEMP:  29; 6HR MAX TEMP:  32;

FREMONT        CLOUDY    29  27  94 N15       29.62R WCI  17
HOLLAND        CLOUDY    33  30  88 NW9       29.61S WCI  25
6HR MIN TEMP:  32; 6HR MAX TEMP:  33; 6HR PCP: TRACE;

GRAND RAPIDS   CLOUDY    33  31  92 W8        29.59S FOG     WCI  26
6HR MIN TEMP:  33; 6HR MAX TEMP:  34; 6HR PCP: TRACE;

IONIA          CLOUDY    32  30  91 W8        29.57S WCI  25
6HR MIN TEMP:  32; 6HR MAX TEMP:  35;

KALAMAZOO      CLOUDY    30  26  85 SW10      29.59F WCI  21
6HR MIN TEMP:  30; 6HR MAX TEMP:  33; 6HR PCP: TRACE;

LUDINGTON      CLOUDY    26  23  87 N10G24    29.67S WCI  16
6HR MIN TEMP:  26; 6HR MAX TEMP:  33;

MARSHALL       CLOUDY    30  28  91 W8        29.58F WCI  23
6HR MIN TEMP:  30; 6HR MAX TEMP:  32;

MOUNT PLEASANT CLOUDY    33  28  84 NW6       29.56S WCI  27
6HR MIN TEMP:  33; 6HR MAX TEMP:  36;

MUSKEGON       CLOUDY    31  25  78 N15       29.63R WCI  20
6HR MIN TEMP:  31; 6HR MAX TEMP:  34; 6HR PCP:  0.01;

SOUTH HAVEN    CLOUDY    32  31  94 NW14G20   29.61F FOG     WCI  22
$$
MIZ016>042-090700-
NORTHERN LOWER MICHIGAN

CITY           SKY/WX    TMP DP  RH WIND       PRES   REMARKS
ALPENA         LGT SNOW  31  27  85 NW14G23   29.56F FOG     WCI  21
6HR MIN TEMP:  31; 6HR MAX TEMP:  35; 6HR PCP:  0.02;

BEAVER ISLAND  CLOUDY    23  19  83 NW10G16   29.67S WCI  13
6HR MIN TEMP:  23; 6HR MAX TEMP:  27;

BELLAIRE       CLOUDY    27  23  86 N5        29.65F WCI  21
6HR MIN TEMP:  27; 6HR MAX TEMP:  32;

CADILLAC       CLOUDY    26  24  92 NW14G20   29.58S WCI  14
CHARLEVOIX     CLOUDY    26  22  87 NW13      29.68S WCI  15
6HR MIN TEMP:  26; 6HR MAX TEMP:  31;

FRANKFORT      CLOUDY    25  20  83 N12G17    29.68S WCI  14
GAYLORD        LGT SNOW  26  23  88 VRB7      29.57S VSB 1   WCI  18
6HR MIN TEMP:  26; 6HR MAX TEMP:  33; 6HR PCP:  0.03;

GRAYLING       CLOUDY    27  24  88 NW13      29.59R WCI  16
HARBOR SPRINGS FLURRIES  26  22  86 W9        29.63S WCI  16
HOUGHTON LAKE  CLOUDY    27  25  92 N12       29.57S WCI  17
6HR MIN TEMP:  27; 6HR MAX TEMP:  35;

MANISTEE       CLOUDY    25  19  80 N13G21    29.67F WCI  13
OSCODA         LGT SNOW  32  32  99 NW12      29.52S WCI  23
6HR MIN TEMP:  32; 6HR MAX TEMP:  34;

PELLSTON       CLOUDY    25  21  85 NW14      29.63S WCI  13
6HR MIN TEMP:  25; 6HR MAX TEMP:  32;

ROGERS CITY    LGT SNOW  29  27  92 NW10G16   29.59F WCI  20
TRAVERSE CITY  CLOUDY    27  21  78 N12       29.65S WCI  17
6HR MIN TEMP:  27; 6HR MAX TEMP:  33; 6HR PCP: TRACE;

$$
MIZ007>008-015-090700-
EASTERN UPPER MICHIGAN

CITY           SKY/WX    TMP DP  RH WIND       PRES   REMARKS
KINROSS        CLOUDY    27  27 100 NW12      29.61S WCI  16
6HR MIN TEMP:  27; 6HR MAX TEMP:  28;

MACKINAC ISLAN FLURRIES  26  25  97 NW8G16    29.61F WCI  17
6HR MIN TEMP:  25; 6HR MAX TEMP:  31;

NEWBERRY       CLOUDY    22  19  87 NW13G20   29.63F WCI  10
6HR MIN TEMP:  22; 6HR MAX TEMP:  25;

S. S. MARIE    LGT SNOW  28  24  85 NW12      29.60F FOG     WCI  18
6HR MIN TEMP:  28; 6HR MAX TEMP:  30; 6HR PCP: TRACE;

$$
MIZ004>006-011>014-085-090700-
CENTRAL UPPER MICHIGAN

CITY           SKY/WX    TMP DP  RH WIND       PRES   REMARKS
MANISTIQUE     CLOUDY    20  14  77 NW12      29.67S WCI   8
6HR MIN TEMP:  19; 6HR MAX TEMP:  21;

ESCANABA       CLEAR     14   7  73 NW8       29.73S WCI   3
6HR MIN TEMP:  14; 6HR MAX TEMP:  21;

MENOMINEE      CLOUDY    16   7  67 N7        29.75S WCI   6
6HR MIN TEMP:  16; 6HR MAX TEMP:  25;

SAWYER-GWINN   FLURRIES  12   8  84 N14       29.69F WCI  -4
6HR MIN TEMP:  11; 6HR MAX TEMP:  15;

$$
MIZ001>003-009>011-084-090700-
WESTERN UPPER MICHIGAN

CITY           SKY/WX    TMP DP  RH WIND       PRES   REMARKS
IRON MOUNTAIN  CLOUDY    13   5  70 N12       29.71S WCI  -1
6HR MIN TEMP:  13; 6HR MAX TEMP:  17; 6HR PCP: TRACE;

HOUGHTON       CLOUDY    11   5  77 N13       29.77R HAZE    WCI  -4
6HR MIN TEMP:  11; 6HR MAX TEMP:  14; 6HR PCP: TRACE;

COPPER HARBOR    N/A     17  13  84 NE23G31   29.77S WCI  -1
6HR MIN TEMP:  16; 6HR MAX TEMP:  18;

IRONWOOD       CLOUDY    12  10  92 N13       29.80R VSB 1   WCI  -3
6HR MIN TEMP:  12; 6HR MAX TEMP:  14;

$$

ABBREVIATIONS USED IN REMARKS
   TC - TEMPERATURE IN CELSIUS
  WCI - WIND CHILL INDEX
   HX - HEAT INDEX
  VSB - VISIBILITY




USA.gov is the U.S. government's official web portal to all federal, state and local government web resources and services.